Regional Weather Roundup
Issued by NWS Green Bay, WI

Home | Current Version | Previous Version | Graphics & Text | Print | Product List | Glossary Off
Versions: 1 2 3 4 5 6 7 8 9 10 11 12 13 14 15 16 17 18 19 20 21 22 23 24 25 26 27 28 29 30 31 32 33 34 35 36 37 38 39 40 41 42 43 44 45 46 47 48 49 50

421
ASUS43 KGRB 311411
RWRGRB

NORTH-CENTRAL AND NORTHEAST WISCONSIN REGIONAL WEATHER ROUNDUP
NATIONAL WEATHER SERVICE GREEN BAY WI
900 AM CDT TUE MAY 31 2016

WIZ005-009-010>012-018-019-311500-
NORTH CENTRAL WISCONSIN

CITY           SKY/WX    TMP DP  RH WIND       PRES   REMARKS
IRONWOOD       CLOUDY    55  46  71 SE9       29.98R
MANITOWISH WTR NOT AVBL
ARBOR VITAE    CLOUDY    57  49  74 SE8       30.03S
EAGLE RIVER      N/A     53  43  69 E10       30.05R
LAND O LAKES   CLOUDY    53  43  70 SE12G17   30.06R
RHINELANDER    CLOUDY    56  47  71 SE10      30.04S
PHILLIPS       CLOUDY    58  52  79 SE10      29.99R
ANTIGO         CLOUDY    55  48  77 E14       30.05F
TOMAHAWK       CLOUDY    56  49  76 E6        30.03R
MERRILL        NOT AVBL
$$

WIZ013-073-311500-
NORTHEAST WISCONSIN

CITY           SKY/WX    TMP DP  RH WIND       PRES   REMARKS
IRON MOUNTAIN  CLOUDY    54  43  66 SE6       30.07S
MARINETTE      CLOUDY    53  47  79 E12       30.09R
OCONTO         CLOUDY    55  50  85 NE6G18    30.07S
$$

WIZ017-030-035>037-045-311500-
CENTRAL WISCONSIN

CITY           SKY/WX    TMP DP  RH WIND       PRES   REMARKS
MEDFORD        CLOUDY    60  54  80 E5        29.99R
WAUSAU         SUNNY     60  50  69 E14       30.00S
MOSINEE        SUNNY     61  54  77 E14       30.02S
MARSHFIELD     PTSUNNY   65  55  70 E14       29.98R
WISC RAPIDS    CLOUDY    68  55  63 SE10      30.00R
STEVENS POINT  CLOUDY    60  52  73 E16       30.02S
WAUPACA        SUNNY     64  56  73 NE12      30.04R
SHAWANO        SUNNY     59  50  71 E9        30.07S
CLINTONVILLE   SUNNY     59  50  72 E9        30.05F
WAUTOMA        MOSUNNY  N/A N/A N/A E13       30.01R
$$

WIZ038-039-048-051-311500-
FOX VALLEY

CITY           SKY/WX    TMP DP  RH WIND       PRES   REMARKS
NWS GREEN BAY  CLOUDY    60  49  66 E9        30.06F
APPLETON       PTSUNNY   61  46  59 E14       30.02F
OSHKOSH        SUNNY     62  55  77 E8        30.02F
FOND DU LAC    SUNNY     67  56  67 E8        30.02S
$$

WIZ022-050-052-311500-
EAST CENTRAL WISCONSIN

CITY           SKY/WX    TMP DP  RH WIND       PRES   REMARKS
EPHRAIM        FAIR      52  46  80 E17       30.06F
STURGEON BAY   NOT AVBL
MANITOWOC      CLOUDY    53  49  86 NE7       30.06F
SHEBOYGAN      CLOUDY    56  50  80 NE16      30.06R
$$

LMZ563-521-522-541>543-311500-
LAKESHORE

STATION/POSITION TIME  TEMP    WIND        PRES    VSBY  WAVE
                       AIR SEA DIR/SP/G                  HT/PER
                 (UTC) (F)     (DEG/KT/KT) (MB)    (MI)  (FT/S)
SHEBOYGAN LKSHOR 1400   48     360/ 11/ 12 1018.3R
KEWAUNEE LKSHORE 1300   48      30/  9/ 14 1018.2R
ALGOMA MARINA    1302           60/ 15/ 23   N/A
NORTHPORT PIER   1300   51      70/  7/ 11 1019.6S
N MID LAKE BUOY  1350   47 47   50/ 10/ 12 1019.3F         1/ 3
SISTER BAY LKSHO 1320   58     120/ 10/ 14   N/A
CHAMBERS ISLAND  1300   52      30/ 13/ 17 1019.3F
MENOMINEE LKSHOR 1300   52      50/ 17/ 19 1017.5F
$$




USA.gov is the U.S. government's official web portal to all federal, state and local government web resources and services.